Location: Glencliff
(36.1226°N, 86.7183°W)
Time: 10:47:41
(UTC+00:00)

Cosmos 44 Rocket - Pass Details

Date: 25 August 2019
Orbit: 653 x 737 km, 65.1° (Epoch: 15 September)

Event Time Altitude Azimuth Distance (km) Brightness Sun altitude
Rises 01:17:45 0° 339° (NNW) 3,030 7.3 -10.8°
Reaches altitude 10° 01:20:17 10° 348° (NNW) 2,100 6.3 -11.3°
Maximum altitude 01:24:37 35° 54° (NE) 1,071 4.0 -12.1°
Enters shadow 01:27:26 18° 110° (ESE) 1,577 4.5 -12.6°
